TimeCST,TemperatureF,Dew PointF,Humidity,Sea Level PressureIn,VisibilityMPH,Wind Direction,Wind SpeedMPH,Gust SpeedMPH,PrecipitationIn,Events,Conditions,WindDirDegrees,DateUTC
12:15 AM,44.6,39.2,81,29.84,10.0,Calm,Calm,-,N/A,,Overcast,0,2013-02-13 06:15:00
12:35 AM,44.6,39.2,81,29.83,10.0,Calm,Calm,-,N/A,,Overcast,0,2013-02-13 06:35:00
12:55 AM,46.4,39.2,76,29.83,10.0,Calm,Calm,-,N/A,,Overcast,0,2013-02-13 06:55:00
1:15 AM,46.4,39.2,76,29.82,10.0,Calm,Calm,-,N/A,,Overcast,0,2013-02-13 07:15:00
1:35 AM,46.4,39.2,76,29.81,10.0,Calm,Calm,-,N/A,,Overcast,0,2013-02-13 07:35:00
1:55 AM,44.6,39.2,81,29.79,10.0,Calm,Calm,-,N/A,,Overcast,0,2013-02-13 07:55:00
2:15 AM,44.6,39.2,81,29.79,10.0,Calm,Calm,-,N/A,,Overcast,0,2013-02-13 08:15:00
2:35 AM,44.6,39.2,81,29.77,10.0,Calm,Calm,-,N/A,,Overcast,0,2013-02-13 08:35:00
2:55 AM,44.6,39.2,81,29.76,10.0,Calm,Calm,-,N/A,,Overcast,0,2013-02-13 08:55:00
3:15 AM,44.6,39.2,81,29.74,10.0,Calm,Calm,-,N/A,,Overcast,0,2013-02-13 09:15:00
3:35 AM,46.4,39.2,76,29.74,10.0,Calm,Calm,-,N/A,,Overcast,0,2013-02-13 09:35:00
3:55 AM,44.6,41.0,87,29.74,10.0,Calm,Calm,-,N/A,Rain,Rain,0,2013-02-13 09:55:00
4:15 AM,44.6,41.0,87,29.74,7.0,Calm,Calm,-,N/A,Rain,Rain,0,2013-02-13 10:15:00
4:35 AM,42.8,42.8,100,29.74,7.0,Calm,Calm,-,N/A,Rain,Light Rain,0,2013-02-13 10:35:00
4:55 AM,42.8,42.8,100,29.72,7.0,Calm,Calm,-,N/A,Rain,Light Rain,0,2013-02-13 10:55:00
5:15 AM,42.8,42.8,100,29.71,3.0,Calm,Calm,-,0.04,Rain,Rain,0,2013-02-13 11:15:00
5:35 AM,42.8,42.8,100,29.71,7.0,Calm,Calm,-,0.04,Rain,Rain,0,2013-02-13 11:35:00
5:55 AM,42.8,42.8,100,29.70,5.0,Calm,Calm,-,N/A,Rain,Rain,0,2013-02-13 11:55:00
6:15 AM,42.8,42.8,100,29.69,5.0,Calm,Calm,-,0.01,Rain,Rain,0,2013-02-13 12:15:00
6:35 AM,42.8,42.8,100,29.69,5.0,Calm,Calm,-,0.01,Rain,Rain,0,2013-02-13 12:35:00
6:55 AM,42.8,42.8,100,29.69,7.0,Calm,Calm,-,N/A,Rain,Light Rain,0,2013-02-13 12:55:00
7:15 AM,42.8,42.8,100,29.70,4.0,Calm,Calm,-,N/A,,Drizzle,0,2013-02-13 13:15:00
7:35 AM,44.6,42.8,93,29.70,5.0,Calm,Calm,-,N/A,Rain,Light Rain,0,2013-02-13 13:35:00
7:55 AM,44.6,42.8,93,29.70,2.0,Calm,Calm,-,N/A,,Drizzle,0,2013-02-13 13:55:00
8:15 AM,44.6,42.8,93,29.69,1.8,Calm,Calm,-,N/A,Rain,Rain,0,2013-02-13 14:15:00
8:35 AM,44.6,42.8,93,29.70,2.0,Calm,Calm,-,N/A,,Drizzle,0,2013-02-13 14:35:00
8:55 AM,44.6,44.6,100,29.70,1.8,Calm,Calm,-,N/A,Rain,Light Rain,0,2013-02-13 14:55:00
9:15 AM,44.6,44.6,100,29.69,1.8,Calm,Calm,-,N/A,Rain,Light Rain,0,2013-02-13 15:15:00
9:35 AM,44.6,44.6,100,29.69,2.0,Calm,Calm,-,N/A,,Overcast,0,2013-02-13 15:35:00
9:55 AM,44.6,44.6,100,29.69,2.0,Calm,Calm,-,N/A,Rain,Rain,0,2013-02-13 15:55:00
10:15 AM,44.6,42.8,93,29.70,3.0,NW,3.5,-,N/A,Rain,Rain,320,2013-02-13 16:15:00
10:35 AM,42.8,42.8,100,29.70,2.5,Calm,Calm,-,N/A,Rain,Rain,0,2013-02-13 16:35:00
10:55 AM,42.8,42.8,100,29.69,10.0,East,3.5,-,N/A,Rain,Light Rain,80,2013-02-13 16:55:00
11:15 AM,42.8,42.8,100,29.68,10.0,East,5.8,-,N/A,,Overcast,80,2013-02-13 17:15:00
11:35 AM,42.8,42.8,100,29.69,10.0,NE,4.6,-,N/A,,Overcast,50,2013-02-13 17:35:00
11:55 AM,42.8,42.8,100,-9999,10.0,Calm,Calm,-,N/A,Rain,Light Rain,0,2013-02-13 17:55:00
12:15 PM,42.8,42.8,100,29.69,7.0,Calm,Calm,-,N/A,Rain,Light Rain,0,2013-02-13 18:15:00
12:35 PM,42.8,42.8,100,-9999,10.0,NW,9.2,-,N/A,Rain,Light Rain,320,2013-02-13 18:35:00
12:55 PM,42.8,39.2,87,-9999,10.0,NNW,9.2,19.6,N/A,Rain,Light Rain,330,2013-02-13 18:55:00
1:15 PM,42.8,39.2,87,29.73,10.0,NNW,4.6,-,N/A,,Light Drizzle,330,2013-02-13 19:15:00
1:35 PM,42.8,37.4,81,29.75,10.0,Calm,Calm,-,N/A,Rain,Light Rain,0,2013-02-13 19:35:00
1:55 PM,42.8,37.4,81,29.76,10.0,NNW,4.6,-,N/A,,Light Drizzle,340,2013-02-13 19:55:00
2:15 PM,42.8,37.4,81,29.77,10.0,North,4.6,-,N/A,,Light Drizzle,350,2013-02-13 20:15:00
2:35 PM,39.2,37.4,93,-9999,7.0,NW,6.9,-,N/A,Rain,Light Rain,320,2013-02-13 20:35:00
2:55 PM,39.2,37.4,93,29.80,10.0,NNW,6.9,-,N/A,Rain,Light Rain,330,2013-02-13 20:55:00
3:15 PM,39.2,37.4,93,20.17,10.0,NW,6.9,-,N/A,,Light Drizzle,310,2013-02-13 21:15:00
3:35 PM,39.2,37.4,93,29.81,10.0,NW,5.8,9.2,N/A,,Overcast,320,2013-02-13 21:35:00
3:55 PM,39.2,35.6,87,29.82,10.0,North,8.1,-,N/A,,Overcast,350,2013-02-13 21:55:00
4:15 PM,39.2,37.4,93,29.83,10.0,WNW,11.5,16.1,N/A,,Overcast,290,2013-02-13 22:15:00
4:35 PM,-9999,-9999,N/A,29.85,10.0,NW,8.1,-,N/A,,Overcast,320,2013-02-13 22:35:00
4:55 PM,39.2,35.6,87,29.86,10.0,Calm,Calm,-,N/A,,Overcast,0,2013-02-13 22:55:00
5:15 PM,39.2,35.6,87,29.87,10.0,NW,5.8,-,N/A,,Overcast,310,2013-02-13 23:15:00
5:35 PM,39.2,35.6,87,29.88,10.0,WNW,3.5,-,N/A,,Overcast,300,2013-02-13 23:35:00
5:55 PM,39.2,35.6,87,29.89,10.0,NW,3.5,-,N/A,,Overcast,320,2013-02-13 23:55:00
6:15 PM,39.2,35.6,87,29.90,10.0,NW,6.9,-,N/A,,Overcast,310,2013-02-14 00:15:00
6:35 PM,39.2,35.6,87,29.90,10.0,Calm,Calm,-,N/A,,Mostly Cloudy,0,2013-02-14 00:35:00
6:55 PM,39.2,35.6,87,29.91,10.0,Calm,Calm,-,N/A,,Overcast,0,2013-02-14 00:55:00
7:15 PM,39.2,35.6,87,29.92,10.0,Calm,Calm,-,N/A,,Mostly Cloudy,0,2013-02-14 01:15:00
7:35 PM,39.2,33.8,81,29.93,10.0,Calm,Calm,-,N/A,,Mostly Cloudy,0,2013-02-14 01:35:00
7:55 PM,39.2,35.6,87,29.93,10.0,Calm,Calm,-,N/A,,Overcast,0,2013-02-14 01:55:00
8:15 PM,39.2,33.8,81,29.93,10.0,Calm,Calm,-,N/A,,Overcast,0,2013-02-14 02:15:00
8:35 PM,39.2,35.6,87,29.94,10.0,Calm,Calm,-,N/A,,Overcast,0,2013-02-14 02:35:00
8:55 PM,39.2,35.6,87,29.94,10.0,Calm,Calm,-,N/A,,Overcast,0,2013-02-14 02:55:00
9:15 PM,39.2,33.8,81,29.95,10.0,Calm,Calm,-,N/A,,Overcast,0,2013-02-14 03:15:00
9:35 PM,39.2,33.8,81,29.95,10.0,Calm,Calm,-,N/A,,Overcast,0,2013-02-14 03:35:00
9:55 PM,37.4,35.6,93,29.96,10.0,Calm,Calm,-,N/A,,Overcast,0,2013-02-14 03:55:00
10:15 PM,37.4,35.6,93,29.96,10.0,Calm,Calm,-,N/A,,Mostly Cloudy,0,2013-02-14 04:15:00
10:35 PM,37.4,35.6,93,29.97,10.0,Calm,Calm,-,N/A,,Overcast,0,2013-02-14 04:35:00
10:55 PM,37.4,35.6,93,29.98,10.0,Calm,Calm,-,N/A,,Overcast,0,2013-02-14 04:55:00
11:15 PM,37.4,32.0,81,29.98,10.0,Calm,Calm,-,N/A,,Overcast,0,2013-02-14 05:15:00
11:35 PM,37.4,32.0,81,29.98,10.0,Calm,Calm,-,N/A,,Overcast,0,2013-02-14 05:35:00
11:55 PM,37.4,33.8,87,29.98,10.0,Calm,Calm,-,N/A,,Unknown,0,2013-02-14 05:55:00